Weather Roundup
Issued by NWS Springfield, MO

Home | Current Version | Previous Version | Text Only | Print | Product List | Glossary On
Versions: 1 2 3 4 5 6 7 8 9 10 11 12 13 14 15 16 17 18 19 20 21 22 23 24 25 26 27 28 29 30 31 32 33 34 35 36 37 38 39 40 41 42 43 44 45 46 47 48 49 50
000
NZUS99 KSGF 030207
HRRSGF

HOURLY WEATHER
NATIONAL WEATHER SERVICE SPRINGFIELD MO
900 PM CDT MON MAY 02 2016

......SGF CWA......

CITY           SKY/WX    TMP DP  RH WIND       PRES   REMARKS
SPRINGFIELD    CLOUDY    52  45  77 N6        30.06R
JOPLIN         CLOUDY    52  48  86 CALM      30.08R
WEST PLAINS    CLOUDY    53  44  71 N7        30.05R
ROLLA          CLOUDY    49  47  93 NW3       30.03R
OSAGE BEACH    CLOUDY    52  41  66 CALM      30.06R
BRANSON        CLOUDY    50  46  87 CALM      30.07R

......SURROUNDING SGF CWA......

CITY           SKY/WX    TMP DP  RH WIND       PRES   REMARKS
CHANUTE        MOCLDY    54  46  74 CALM      30.08S
PARSONS        CLEAR     50  46  86 CALM      30.09S
COFFEYVILLE    CLEAR     51  46  83 CALM      30.08S
EMPORIA        CLEAR     51  44  77 SE5       30.08R
GROVE OK       CLOUDY    55  48  76 CALM      30.09R
ROGERS AR      CLOUDY    50  46  86 CALM      30.08R
SILOAM SPRINGS CLOUDY    50  39  66 CALM      30.09R
HARRISON AR    CLOUDY    51  47  86 W3        30.06S
NEAR YELLVILLE CLOUDY   N/A N/A N/A NW6       30.02S

......KANSAS AND MISSOURI......

CITY           SKY/WX    TMP DP  RH WIND       PRES   REMARKS
KANSAS CTY INT PTCLDY    49  45  86 S5        30.06S
DOWNTOWN KC    CLEAR     54  46  74 SW3       30.06S
COLUMBIA       CLOUDY    51  49  92 NW6       30.04S
SEDALIA        CLOUDY    51  49  92 CALM      30.06F
ST JOSEPH      CLEAR     53  47  79 SW5       30.06R
ST LOUIS       CLOUDY    54  49  83 NW5       30.02S
SPIRIT OF STL  CLOUDY    53  50  89 W5        30.02S
KIRKSVILLE     PTCLDY    47  45  93 NW3       30.06S
WICHITA        PTCLDY    56  38  50 CALM      30.08R
TOPEKA         CLEAR     52  45  77 CALM      30.07S
OLATHE         CLEAR     49  44  83 CALM      30.07S

......TENNESSEE......

CITY           SKY/WX    TMP DP  RH WIND       PRES   REMARKS
MEMPHIS        MOCLDY    64  56  75 CALM      29.99R
NASHVILLE      CLOUDY    60  56  86 CALM      29.95F

......ARKANSAS.......

CITY           SKY/WX    TMP DP  RH WIND       PRES   REMARKS
FAYETTEVILLE   CLEAR     47  46  97 CALM      30.08R
FT SMITH       CLOUDY    57  43  59 NW5       30.07R
LITTLE ROCK    PTCLDY    63  52  67 NW10      30.01R

......OKLAHOMA.......

CITY           SKY/WX    TMP DP  RH WIND       PRES   REMARKS
TULSA          PTCLDY    54  46  74 CALM      30.07R
PONCA CITY     CLEAR     54  43  66 CALM      30.09R
MCALESTER      PTCLDY    51  48  89 CALM      30.10R
OKLAHOMA CITY  PTCLDY    57  42  57 N5        30.11R

......IOWA............

CITY           SKY/WX    TMP DP  RH WIND       PRES   REMARKS
DES MOINES     PTCLDY    55  42  61 SE5       30.05S
QUAD CITIES    CLOUDY    54  45  71 W5        30.02F

......ILLINOIS........

CITY           SKY/WX    TMP DP  RH WIND       PRES   REMARKS
QUINCY         CLOUDY    50  48  93 NW3       30.03S
CHICAGO        PTCLDY    50  33  52 N6        30.01S




USA.gov is the U.S. government's official web portal to all federal, state and local government web resources and services.